Погода в Марау-Саунд

Соломоновы острова     9°48′06″S   160°50′42″E
В апреле 2022 года жителям России запретили посещать сайт meteo.paraplan.net по решению Генеральной прокуратуры. Аудитория сайта уменьшилась в 10 раз. Владельцы сайта не видят смысла в поддержке погодного сервера в таких условиях. Сайт будет закрыт в октябре.
темп.,
°C
ветер,
м/с
пор.,
м/с
влажн.,
%
обл.,
%
осадки,
мм/ч
давл.,
гПа
погр.,
м
25 сентября, вс
вс2523:00+24вюв128919 0.1 1011235
02:00+24ююз119112 0.3 1010134
05:00+24юв128922 0.4 1010238
08:00+26в228586 0.8 1012383
11:00+28в237098 2.7 1012860
14:00+29в3267100 1.1 1009987
17:00+27в2274100 1.9 1009614
20:00+24ююв128995 1.5 101284
26 сентября, пн
пн2623:00+24ююз118928 2.3 1012170
02:00+23юз01895 0.0 1010175
05:00+23зюз118985 0.0 1010165
08:00+25ююв018357 0.0 1012320
11:00+29в226382 0.0 10111043
14:00+29в3366100 0.4 10081000
17:00+27вюв337362 0.6 1008612
20:00+24ю238619 0.0 1010234
27 сентября, вт
вт2723:00+24ю11901 0.9 101185
02:00+23юз11915 1.1 100928
05:00+23юз119039 1.9 101090
08:00+26св118226 0.1 1011343
11:00+28св23686 0.1 1011935
14:00+29св33655 0.3 1008982
17:00+27всв337321 0.8 1009775
20:00+24св23886 2.4 1011237
28 сентября, ср
ср2823:00+24всв01897 2.9 1012198
02:00+24св028913 0.2 1010222
05:00+24ссв129030 0.3 1010254
08:00+26св238226 0.1 1012632
11:00+28св347534 0.9 1012964
14:00+29св34601 0.1 10101000
17:00+27всв236623 0.1 1009622
20:00+24всв238196 0.0 1012306
29 сентября, чт
чт2923:00+24в128416 0.0 1013354
02:00+23всв02845 0.0 1011361
05:00+23зюз02855 0.0 1011331
08:00+26всв127197 0.0 1013470
11:00+28всв236091 0.0 1012895
14:00+29в226063 0.0 1010928
17:00+27вюв347399 0.0 1010343
20:00+24ююв248798 0.0 1012252